Zurück zum Katalog

STARLINK-35945

AktivKommunikationVLEO
NORAD 66925·PAYLOAD·🇺🇸 United States

Gestartet Dec 7, 2025 von Vandenberg Space Force Base

Loading…

Nächste Überflüge (nächste 24 Stunden)

TLE

AktuellSource: CelesTrak SupGP

Epoche: Sep 15, 2026, 02:48 UTC

1 66925C 25286A   26258.11715278 -.00047352  00000+0 -13991-2 0  2581
2 66925  53.1589 195.0940 0001402  79.2816  82.0448 15.34413219    19

Verfolge STARLINK-35945 in Echtzeit mit AllMySat

Download on the App Store